Location: Newark
(40.9833°N, 0.0333°W)
Time: 08:39:41
(UTC+00:00)

Transit 4A - Pass Details

Date: 01 November 2020
Orbit: 862 x 982 km, 66.8° (Epoch: 26 November)

Event Time Altitude Azimuth Distance (km) Brightness Sun altitude
Rises 14:04:13 0° 207° (SSW) 3,573 12.2 25.5°
Reaches altitude 10° 14:06:42 10° 207° (SSW) 2,650 12.0 25.2°
Maximum altitude 14:12:55 89° 120° (ESE) 967 8.5 24.5°
Drops below altitude 10° 14:19:20 10° 30° (NNE) 2,730 9.9 23.7°
Sets 14:21:56 0° 30° (NNE) 3,688 10.5 23.4°
